Regional Weather Roundup
Issued by NWS

Current Version | Previous Version | Text Only | Print | Product List | Glossary On
Versions: 1 2 3 4 5 6 7 8 9 10 11 12 13 14 15 16 17 18 19 20 21 22 23 24 25 26 27 28 29 30 31 32 33 34 35 36 37 38 39 40 41 42 43 44 45 46 47 48 49 50
000
ASUS46 KPQR 310410
RWROR

OREGON REGIONAL WEATHER ROUNDUP
NATIONAL WEATHER SERVICE PORTLAND OR
900 PM PDT WED JUL 30 2014

NOTE: "FAIR" INDICATES FEW OR NO CLOUDS BELOW 12,000 FEET WITH
NO SIGNIFICANT WEATHER AND/OR OBSTRUCTIONS TO VISIBILITY.

ORZ001>013-310500-
NORTHWEST OREGON


CITY           SKY/WX    TMP DP  RH WIND       PRES   REMARKS
ASTORIA        CLEAR     62  50  64 NW12      30.11R
NEWPORT        CLEAR     54  52  94 N10       30.11S
PORTLAND       PTCLDY    79  59  50 NW14      30.01S
VANCOUVER WA   CLEAR     80  56  43 NW7       30.00S
SCAPPOOSE      CLEAR     78  58  49 NW8       30.01S
HILLSBORO      CLEAR     76  58  53 NW14      30.03R
AURORA         CLEAR     80  53  39 N9        30.02S
MCMINNVILLE    CLEAR     80  57  45 N8        30.02S
SALEM          CLEAR     82  56  40 NE7       30.01R
CORVALLIS        N/A     75  57  53 NW13      30.03R
EUGENE         PTCLDY    78  55  44 N10       29.99F
$$

ORZ021-028-310500-
SOUTHWEST OREGON


CITY           SKY/WX    TMP DP  RH WIND       PRES   REMARKS
NORTH BEND     CLEAR     59  57  94 N18G24    30.08S
BROOKINGS      CLEAR     57  55  93 CALM      30.02S
ROSEBURG       CLEAR     86  54  33 NW10      29.98R
SEXTON SUMMIT  PTCLDY    72  48  42 N10       30.15R
MEDFORD        MOCLDY    87  57  35 E9        29.98R
$$

ORZ009-041-310500-
COLUMBIA GORGE


CITY           SKY/WX    TMP DP  RH WIND       PRES   REMARKS
TROUTDALE      CLEAR     80  59  48 W3        29.99R
THE DALLES     PTCLDY    84  61  45 NW15      29.92R
$$

ORZ029>031-042>050-061>064-310500-
EASTERN OREGON


CITY           SKY/WX    TMP DP  RH WIND       PRES   REMARKS
REDMOND        CLOUDY    83  36  18 SW7       30.11S
BEND           CLOUDY    81  39  22 W13G22    30.15S
KLAMATH FALLS  LGT RAIN  73  50  44 VRB3      30.22R
LAKEVIEW       CLOUDY    79  36  21 W7        30.22R
HERMISTON      MOCLDY    89  52  28 S7        29.89R
PENDLETON      CLOUDY    89  39  17 NW6       29.96R
JOHN DAY       PTCLDY    85  35  16 N14G26    30.14S
MEACHAM        MOCLDY    71  53  52 CALM      30.16R
LA GRANDE      PTCLDY    82  43  24 CALM      30.06R
BAKER CITY     PTCLDY    73  50  44 W10       30.11R
BURNS          MOCLDY    72  41  32 N9        30.15R
ROME             N/A     84  38  19 VRB3      30.13R
ONTARIO        PTCLDY    79  53  40 E3        30.05R
$$



USA.gov is the U.S. government's official web portal to all federal, state and local government web resources and services.